DW1541 Weather Reports


Display with metric or nautical units.
time (UTC)temp
F
wind
direction
speed
MPH
gust
MPH
rain 1hr
in
rain 24hr
in
rain mn
in
humidity
%
barometer
mb
20260504231530 77 0.0 0.0 0.00 0.00 0.00 42 1009.6
20260504231016 78 0.0 0.0 0.00 0.00 0.00 41 1009.7
20260504230516 78 0.0 0.0 0.00 0.00 0.00 42 1009.6
20260504230034 78 0.0 0.0 0.00 0.00 0.00 42 1009.7
20260504225515 78 0.0 0.0 0.00 0.00 0.00 43 1009.7
20260504225017 78 0.0 0.0 0.00 0.00 0.00 43 1009.7
20260504224537 78 0.0 0.0 0.00 0.00 0.00 41 1009.7
20260504224015 78 0.0 0.0 0.00 0.00 0.00 40 1009.8
20260504223518 78 0.0 0.0 0.00 0.00 0.00 42 1009.9
20260504223030 78 0.0 0.0 0.00 0.00 0.00 41 1010.0
20260504222514 79 0 0.0 0.0 0.00 0.00 0.00 39 1010.0
20260504222016 79 0 0.0 0.0 0.00 0.00 0.00 38 1010.1
20260504221530 79 0 0.0 0.0 0.00 0.00 0.00 38 1010.2
20260504221016 79 0 0.0 0.0 0.00 0.00 0.00 39 1010.2
20260504220519 80 0 0.0 0.0 0.00 0.00 0.00 41 1010.3
20260504220030 80 0 0.0 0.0 0.00 0.00 0.00 38 1010.2
20260504215517 80 0 0.0 0.0 0.00 0.00 0.00 38 1010.3
20260504215017 81 0 0.0 0.0 0.00 0.00 0.00 37 1010.2
20260504214534 81 0 0.0 0.0 0.00 0.00 0.00 36 1010.3
20260504214017 82 0 0.0 0.0 0.00 0.00 0.00 37 1010.3
20260504213515 82 0 0.0 0.0 0.00 0.00 0.00 39 1010.2
20260504213031 82 0 0.0 0.0 0.00 0.00 0.00 38 1010.3
20260504212515 82 0 0.0 0.0 0.00 0.00 0.00 39 1010.3
20260504212019 82 0 0.0 0.0 0.00 0.00 0.00 39 1010.4
20260504211534 82 0 0.0 0.0 0.00 0.00 0.00 37 1010.4
20260504211017 82 0 0.0 0.0 0.00 0.00 0.00 41 1010.4
20260504210517 82 0 0.0 0.0 0.00 0.00 0.00 43 1010.3
20260504210037 82 0 0.0 0.0 0.00 0.00 0.00 41 1010.4
20260504205517 82 0 0.0 0.0 0.00 0.00 0.00 42 1010.6
20260504205018 82 0 0.0 0.0 0.00 0.00 0.00 44 1010.6
20260504204551 81 0 0.0 0.0 0.00 0.00 0.00 43 1010.6
20260504204016 81 0 0.0 0.0 0.00 0.00 0.00 48 1010.6
20260504203516 81 0 0.0 0.0 0.00 0.00 0.00 42 1010.6
20260504203031 81 0 0.0 0.0 0.00 0.00 0.00 44 1010.6
20260504202516 80 0 0.0 0.0 0.00 0.00 0.00 42 1010.5
20260504202016 80 0 0.0 0.0 0.00 0.00 0.00 47 1010.5
20260504201533 80 0 0.0 0.0 0.00 0.00 0.00 46 1010.5
20260504201016 80 0 0.0 0.0 0.00 0.00 0.00 43 1010.6
20260504200516 80 0 0.0 0.0 0.00 0.00 0.00 47 1010.6
20260504200030 79 0 0.0 0.0 0.00 0.00 0.00 47 1010.6
20260504195515 79 0 0.0 0.0 0.00 0.00 0.00 46 1010.5
20260504195017 79 0 0.0 0.0 0.00 0.00 0.00 44 1010.6
20260504194530 78 0 0.0 0.0 0.00 0.00 0.00 47 1010.4
20260504194017 77 0 0.0 0.0 0.00 0.00 0.00 52 1010.5
20260504193516 76 0 0.0 0.0 0.00 0.00 0.00 52 1010.5
20260504193031 75 0 0.0 0.0 0.00 0.00 0.00 56 1010.7
20260504192516 74 0 0.0 0.0 0.00 0.00 0.00 52 1010.8
20260504192016 73 0 0.0 0.0 0.00 0.00 0.00 58 1010.8
20260504191532 72 0 0.0 0.0 0.00 0.00 0.00 55 1010.9
20260504191019 71 0 0.0 0.0 0.00 0.00 0.00 56 1010.8
20260504190516 70 0 0.0 0.0 0.00 0.00 0.00 60 1010.8
20260504190035 70 0 0.0 0.0 0.00 0.00 0.00 59 1010.8
20260504185516 69 0 0.0 0.0 0.00 0.00 0.00 59 1010.8
20260504185018 69 0 0.0 0.0 0.00 0.00 0.00 57 1010.9
20260504184531 69 0 0.0 0.0 0.00 0.00 0.00 57 1011.0
20260504184017 68 0 0.0 0.0 0.00 0.00 0.00 59 1010.9
20260504183517 68 0 0.0 0.0 0.00 0.00 0.00 59 1011.0
20260504183031 68 0 0.0 0.0 0.00 0.00 0.00 60 1011.0
20260504182516 67 0 0.0 0.0 0.00 0.00 0.00 59 1010.9
20260504182016 67 0 0.0 0.0 0.00 0.00 0.00 59 1010.9
20260504181530 67 0 0.0 0.0 0.00 0.00 0.00 59 1010.9
20260504181017 66 0 0.0 0.0 0.00 0.00 0.00 59 1010.9
20260504180517 66 0 0.0 0.0 0.00 0.00 0.00 59 1011.0
20260504180033 65 0 0.0 0.0 0.00 0.00 0.00 61 1011.0
20260504175516 65 0 0.0 0.0 0.00 0.00 0.00 62 1010.9
20260504175016 65 0 0.0 0.0 0.00 0.00 0.00 63 1011.1
20260504174534 65 0 0.0 0.0 0.00 0.00 0.00 63 1011.0
20260504174016 64 0 0.0 0.0 0.00 0.00 0.00 66 1010.9
20260504173516 64 0 0.0 0.0 0.00 0.00 0.00 64 1010.9
20260504173030 63 0 0.0 0.0 0.00 0.00 0.00 64 1010.9
20260504172515 63 0 0.0 0.0 0.00 0.00 0.00 66 1010.9
20260504172016 63 0 0.0 0.0 0.00 0.00 0.00 66 1011.1
20260504171532 62 0 0.0 0.0 0.00 0.00 0.00 66 1011.0
20260504171020 62 0 0.0 0.0 0.00 0.00 0.00 68 1011.0
20260504170517 62 0 0.0 0.0 0.00 0.00 0.00 68 1011.1
20260504151016 53 0 0.0 0.0 0.00 0.00 0.00 85 1010.4
20260504150515 53 0 0.0 0.0 0.00 0.00 0.00 85 1010.3
20260504141016 52 0 0.0 0.0 0.00 0.00 0.00 86 1010.1
20260504140516 52 0 0.0 0.0 0.00 0.00 0.00 86 1009.9
20260504130519 53 0 0.0 0.0 0.00 0.00 0.00 85 1009.7
20260504110515 54 0 0.0 0.0 0.00 0.00 0.00 83 1009.6
20260504100515 55 0 0.0 0.0 0.00 0.00 0.00 81 1009.3
20260504081535 58 0 0.0 0.0 0.00 0.00 0.00 77 1009.4
20260504081015 58 0 0.0 0.0 0.00 0.00 0.00 77 1009.6
20260504080515 58 0 0.0 0.0 0.00 0.00 0.00 78 1009.5
20260504050521 65 0 0.0 0.0 0.00 0.00 0.00 65 1009.8
20260504045514 66 0 0.0 0.0 0.00 0.00 0.00 64 1009.7
20260504045015 66 0 0.0 0.0 0.00 0.00 0.00 63 1009.7
20260504044546 66 0 0.0 0.0 0.00 0.00 0.00 61 1009.6
20260504044016 66 0 0.0 0.0 0.00 0.00 0.00 62 1009.7
20260504043517 67 0 0.0 0.0 0.00 0.00 0.00 61 1009.6
20260504043030 67 0 0.0 0.0 0.00 0.00 0.00 62 1009.6
20260504042516 67 0 0.0 0.0 0.00 0.00 0.00 62 1009.6
20260504042015 67 0 0.0 0.0 0.00 0.00 0.00 61 1009.6
20260504041541 68 0 0.0 0.0 0.00 0.00 0.00 60 1009.6
20260504041015 68 0 0.0 0.0 0.00 0.00 0.00 61 1009.6
20260504040515 68 0 0.0 0.0 0.00 0.00 0.00 60 1009.5
20260504040040 69 0 0.0 0.0 0.00 0.00 0.00 59 1009.4
20260504035516 69 0 0.0 0.0 0.00 0.00 0.00 60 1009.5
20260504035018 69 0 0.0 0.0 0.00 0.00 0.00 59 1009.4
20260504034544 70 0 0.0 0.0 0.00 0.00 0.00 60 1009.5
20260504034017 70 0 0.0 0.0 0.00 0.00 0.00 59 1009.5
20260504033515 71 0 0.0 0.0 0.00 0.00 0.00 57 1009.4
20260504033032 71 0 0.0 0.0 0.00 0.00 0.00 58 1009.4
20260504032518 71 0 0.0 0.0 0.00 0.00 0.00 56 1009.4
20260504032018 71 0 0.0 0.0 0.00 0.00 0.00 55 1009.3
20260504031542 72 0 0.0 0.0 0.00 0.00 0.00 54 1009.4
20260504031016 72 0 0.0 0.0 0.00 0.00 0.00 55 1009.4
20260504030515 72 0 0.0 0.0 0.00 0.00 0.00 54 1009.5
20260504030035 72 0 0.0 0.0 0.00 0.00 0.00 55 1009.5
20260504025517 73 0 0.0 0.0 0.00 0.00 0.00 54 1009.5
20260504025017 73 0 0.0 0.0 0.00 0.00 0.00 54 1009.5
20260504024530 73 0 0.0 0.0 0.00 0.00 0.00 54 1009.4
20260504024016 74 0 0.0 0.0 0.00 0.00 0.00 55 1009.4
20260504023517 74 0 0.0 0.0 0.00 0.00 0.00 55 1009.3
20260504023030 74 0 0.0 0.0 0.00 0.00 0.00 55 1009.3
20260504022515 74 0 0.0 0.0 0.00 0.00 0.00 54 1009.2
20260504022016 74 0 0.0 0.0 0.00 0.00 0.00 55 1009.3
20260504021534 75 0 0.0 0.0 0.00 0.00 0.00 54 1009.2
20260504021016 75 0 0.0 0.0 0.00 0.00 0.00 55 1009.4
20260504020517 75 0 0.0 0.0 0.00 0.00 0.00 55 1009.4
20260504020038 75 0 0.0 0.0 0.00 0.00 0.00 54 1009.4
20260504015517 75 0 0.0 0.0 0.00 0.00 0.00 54 1009.4
20260504015017 76 0 0.0 0.0 0.00 0.00 0.00 53 1009.4
20260504014537 76 0 0.0 0.0 0.00 0.00 0.00 53 1009.4
20260504014017 76 0 0.0 0.0 0.00 0.00 0.00 52 1009.4
20260504013515 76 0 0.0 0.0 0.00 0.00 0.00 52 1009.5
20260504013042 76 0 0.0 0.0 0.00 0.00 0.00 51 1009.5
20260504012516 76 0 0.0 0.0 0.00 0.00 0.00 50 1009.5
20260504012015 76 0 0.0 0.0 0.00 0.00 0.00 50 1009.4
20260504011529 77 0 0.0 0.0 0.00 0.00 0.00 51 1009.5
20260504011015 77 0 0.0 0.0 0.00 0.00 0.00 52 1009.4
20260504010515 77 0 0.0 0.0 0.00 0.00 0.00 51 1009.4
20260504010032 77 0 0.0 0.0 0.00 0.00 0.00 51 1009.5
20260504005516 77 0 0.0 0.0 0.00 0.00 0.00 51 1009.6
20260504005014 77 0 0.0 0.0 0.00 0.00 0.00 49 1009.6
20260504004534 77 0 0.0 0.0 0.00 0.00 0.00 51 1009.6
20260504004015 77 0 0.0 0.0 0.00 0.00 0.00 50 1009.7
20260504003515 77 0 0.0 0.0 0.00 0.00 0.00 50 1009.7
20260504003032 77 0 0.0 0.0 0.00 0.00 0.00 51 1009.8
20260504002515 77 0 0.0 0.0 0.00 0.00 0.00 50 1009.7
20260504002017 77 0 0.0 0.0 0.00 0.00 0.00 51 1009.7
20260504001535 77 0 0.0 0.0 0.00 0.00 0.00 51 1009.7
20260504001017 77 0 0.0 0.0 0.00 0.00 0.00 51 1009.8
20260504000518 77 0 0.0 0.0 0.00 0.00 0.00 50 1009.8
20260504000030 77 0 0.0 0.0 0.00 0.00 0.00 50 1009.9
20260503235516 77 0 0.0 0.0 0.00 0.00 0.00 50 1010.0
20260503235014 77 0 0.0 0.0 0.00 0.00 0.00 50 1010.0
20260503234532 77 0 0.0 0.0 0.00 0.00 0.00 50 1010.1
20260503234017 77 0 0.0 0.0 0.00 0.00 0.00 50 1010.0
20260503233515 76 0 0.0 0.0 0.00 0.00 0.00 50 1010.1
20260503233034 77 0 0.0 0.0 0.00 0.00 0.00 49 1010.2
20260503232517 77 0 0.0 0.0 0.00 0.00 0.00 50 1010.3
20260503232016 77 0 0.0 0.0 0.00 0.00 0.00 50 1010.4